RH
68 73 78 81 83 85 85 86 87 87 88 87 85 83 79 79 81 80 78 78 77 77 78 80 79 78 81 81 82 83 81 78 77 79 78 74 72 72 72 72 73 73 73 77 77 75 73 71 67 65 62 58 54 52 51 49 47 45 43 42 40 40 40 37 35 35 34 34 35 36 37 37 37 37 37 39 41 43 45 46 46 46 46 45 45 44 44 44 44 44 45 45 46 48 50 52 53
67 72 77 80 81 84 85 86 87 85 86 85 80 79 76 78 81 78 75 75 73 73 76 77 78 78 79 79 81 81 80 81 76 74 74 71 70 69 67 69 70 69 68 70 70 69 68 66 63 63 59 54 51 49 48 46 44 43 42 40 40 40 39 37 36 37 37 38 39 39 40 40 39 39 39 41 43 45 47 48 48 48 47 46 45 44 45 46 46 46 44 42 43 46 47 48 50
67 72 75 79 82 84 84 85 86 84 84 82 77 74 74 78 78 74 72 73 71 72 76 77 78 79 79 80 81 81 81 82 76 71 71 68 67 66 65 65 65 64 63 64 64 62 61 59 59 59 56 51 49 47 47 45 44 43 41 39 38 39 38 37 38 38 40 41 42 42 42 41 41 41 42 43 45 48 50 49 50 49 48 48 47 46 47 49 50 49 45 43 42 43 45 46 47
66 70 73 76 81 83 83 83 83 82 81 79 75 71 72 74 73 72 72 73 72 71 72 74 77 77 79 80 79 78 79 80 74 67 67 66 62 62 62 62 62 60 60 60 59 57 55 54 55 55 52 49 47 46 45 44 44 43 40 38 38 38 38 38 39 40 41 43 43 43 42 42 42 42 43 45 48 50 50 50 50 49 49 49 49 49 49 50 51 51 48 45 44 43 44 46 47
64 67 71 74 78 78 78 80 80 80 78 76 73 69 68 67 68 70 71 71 71 69 67 68 71 73 75 76 75 75 76 74 69 63 64 63 59 59 59 60 59 58 57 57 56 55 52 51 52 53 52 47 45 44 43 43 43 41 39 38 39 39 39 40 41 42 43 43 42 42 43 43 43 43 44 46 49 50 50 49 50 51 53 54 53 52 51 52 51 50 50 49 47 46 46 46 48
65 66 68 72 72 71 75 77 77 78 73 71 71 68 64 62 63 66 68 68 68 67 65 63 65 69 69 70 70 71 71 68 63 61 61 59 57 57 57 57 57 57 56 55 56 55 54 52 52 54 52 47 44 43 42 41 39 38 37 38 39 39 40 41 42 43 42 42 42 42 42 43 42 43 45 48 50 50 51 52 53 56 58 59 59 57 55 55 53 49 50 51 50 48 48 48 48
64 68 70 72 68 69 76 75 73 76 70 67 69 65 62 62 60 61 65 66 67 67 64 61 61 63 64 65 68 69 69 64 59 58 57 56 54 55 54 55 56 56 55 55 56 56 55 54 54 55 52 48 44 43 41 38 36 35 35 37 37 37 38 40 42 42 42 42 41 42 42 43 43 45 48 49 50 52 54 55 57 57 57 59 61 60 58 57 55 51 50 52 52 52 50 50 48
64 68 69 69 67 68 73 70 67 70 64 61 65 64 61 62 60 57 60 61 63 64 61 59 57 59 61 63 67 68 68 63 57 54 53 52 51 52 53 53 54 55 55 55 55 55 54 53 53 53 52 48 44 42 41 38 35 34 34 35 35 36 38 40 42 41 41 41 42 43 42 43 45 48 50 51 52 54 54 54 53 52 53 56 57 58 58 58 56 54 54 53 53 54 53 52 50
68 67 66 67 69 68 67 63 59 59 55 54 59 61 58 59 60 57 57 59 59 59 58 57 57 59 61 63 65 66 65 62 56 53 51 51 51 50 51 51 52 52 53 53 53 53 53 52 51 50 48 44 41 39 38 36 36 36 36 36 36 38 39 41 41 41 42 43 44 44 44 46 50 52 53 54 55 53 49 48 47 47 51 55 54 54 56 58 57 56 56 56 55 55 55 55 53
68 65 65 67 68 68 65 60 54 52 49 50 54 53 52 54 57 56 54 58 59 58 58 57 59 60 61 62 65 64 62 60 55 53 52 52 52 50 49 49 49 48 48 48 48 49 50 50 48 47 45 40 37 37 36 36 37 38 40 40 40 40 41 42 42 42 44 45 46 47 48 50 52 53 54 55 52 47 45 46 46 46 49 52 53 52 53 55 57 58 58 59 58 57 56 57 57
65 65 66 67 67 66 64 58 51 48 43 46 49 46 48 50 54 54 51 56 58 57 57 58 60 59 60 61 63 61 58 58 56 54 52 50 49 48 48 47 47 47 46 45 46 46 46 46 45 43 41 38 36 35 36 37 38 40 41 42 42 43 43 43 43 44 46 47 47 48 49 50 52 53 55 53 48 44 45 46 46 45 46 47 49 49 50 51 53 54 56 59 59 57 56 56 58
67 68 67 68 67 64 59 55 50 46 43 45 45 42 46 48 51 52 52 56 56 57 55 55 58 58 58 57 59 60 56 56 56 55 54 51 48 47 47 45 46 46 45 43 43 44 44 44 42 40 39 38 37 36 37 39 40 41 42 42 43 44 43 44 44 45 47 48 47 48 49 48 52 54 54 51 45 43 44 45 45 45 44 44 44 45 46 46 46 47 49 51 53 53 52 53 55
70 68 66 66 64 60 55 53 51 49 47 45 40 39 43 47 50 52 54 56 52 54 55 53 56 57 58 55 56 58 57 56 56 57 56 52 50 49 47 45 45 45 44 43 41 42 43 43 41 40 39 40 39 39 40 41 41 42 42 43 43 44 45 45 45 45 45 47 48 49 49 48 49 50 49 46 43 43 42 42 43 44 44 44 45 45 45 45 45 45 46 47 47 49 48 49 50
71 65 64 65 62 58 54 52 49 49 48 43 40 38 41 47 51 53 54 54 53 54 55 54 54 55 58 54 53 55 55 55 55 58 57 54 53 51 48 46 45 44 45 43 41 41 42 42 41 40 41 41 41 42 43 43 42 42 43 43 44 45 46 45 44 44 45 46 47 48 49 48 46 43 42 40 40 41 41 40 40 41 41 41 44 44 45 45 47 49 49 50 50 50 49 48 48
70 64 62 64 62 59 55 49 45 46 46 44 43 40 40 42 43 50 53 54 57 56 55 55 51 53 57 54 51 52 53 53 53 56 57 56 57 54 49 47 45 43 45 44 42 42 40 41 41 42 42 41 42 42 43 42 42 42 43 43 43 44 44 43 43 44 46 46 45 47 47 44 41 39 38 38 39 41 41 40 40 39 38 37 38 39 40 42 46 50 53 54 55 55 54 55 55
68 64 62 64 62 59 53 46 42 44 46 45 45 41 41 40 37 42 48 52 57 56 55 53 51 52 56 56 53 50 49 51 52 53 55 56 57 55 48 44 44 42 43 42 41 40 39 40 41 42 41 40 41 41 41 41 41 41 42 43 42 42 43 43 44 45 45 44 45 46 44 41 38 37 37 40 42 42 41 39 39 37 36 35 36 36 37 40 42 46 51 52 51 52 54 57 59
66 64 63 64 61 56 51 46 43 44 46 44 44 42 42 40 35 37 43 47 51 53 52 51 53 53 54 55 55 52 48 49 51 52 53 55 55 54 49 44 41 40 40 40 39 37 37 40 40 39 38 37 37 37 38 38 39 40 41 41 42 42 43 44 44 43 43 43 45 45 42 39 37 37 40 42 43 41 39 38 37 36 35 37 39 40 41 42 43 44 47 46 45 46 48 49 50
62 62 62 63 61 57 51 49 47 42 41 42 43 42 39 35 33 35 41 44 44 47 50 52 54 53 54 53 53 54 51 48 49 50 51 53 54 52 49 44 40 38 39 39 37 36 37 39 37 36 35 35 35 36 37 37 38 40 40 40 41 42 43 43 41 40 40 42 44 44 42 39 37 39 42 42 41 39 38 37 37 37 36 39 45 45 45 46 45 44 44 44 43 43 42 41 42
59 59 61 61 58 56 52 50 49 43 38 41 43 40 37 34 33 34 36 39 38 40 46 52 52 50 52 52 50 51 52 48 46 47 49 51 52 50 47 43 38 36 37 38 36 36 38 37 34 34 34 34 34 35 36 36 37 38 39 40 40 41 41 40 39 38 39 40 42 43 42 41 41 41 42 42 41 39 39 39 37 37 38 41 48 48 46 46 45 43 43 44 44 43 41 40 41
57 56 60 59 55 53 53 52 50 47 43 43 41 39 39 37 36 35 33 34 34 34 38 45 47 47 48 50 48 48 49 48 44 45 47 49 49 47 44 40 37 35 35 36 36 37 38 35 33 34 34 34 34 34 35 36 36 37 38 40 40 40 40 39 38 38 39 40 42 43 44 44 42 42 43 44 42 42 43 42 39 38 40 43 46 48 48 46 44 44 43 42 43 44 42 42 40
55 55 57 56 53 53 54 53 51 50 48 45 42 40 41 39 38 37 34 34 36 36 34 35 41 43 44 46 48 47 47 46 43 43 46 48 48 45 41 38 35 33 35 36 37 38 36 34 34 35 35 35 35 36 36 36 37 38 39 40 39 39 38 38 38 38 38 38 39 43 45 46 44 44 44 44 45 46 47 46 44 42 43 44 44 47 49 47 45 45 43 42 42 43 42 41 39
53 52 53 52 52 52 52 51 51 52 49 46 46 44 42 38 37 36 34 34 37 38 35 34 37 39 42 45 48 48 46 44 42 42 44 46 47 44 39 34 33 34 35 36 37 37 34 33 35 36 37 37 37 37 37 37 37 38 39 39 38 37 37 36 36 37 37 36 38 41 43 44 43 45 47 47 49 50 50 50 48 47 46 47 46 46 48 48 47 45 43 42 40 40 40 39 39
51 49 50 50 50 48 47 47 46 49 49 46 46 46 41 36 36 35 33 34 36 36 38 40 41 41 42 44 47 49 46 43 41 40 42 43 45 43 37 31 31 34 34 34 35 33 32 33 35 37 37 37 37 36 36 36 36 36 37 36 35 35 34 34 35 37 37 37 39 41 42 44 45 47 49 50 50 51 50 49 49 50 48 49 49 47 47 48 48 45 44 43 39 39 38 37 38
47 47 46 46 48 46 45 45 43 43 47 46 45 45 42 38 36 34 33 37 40 39 39 42 45 45 43 43 45 47 46 44 41 39 40 41 42 41 36 30 31 34 34 34 34 31 32 34 35 37 37 36 36 35 35 34 34 34 35 34 34 34 34 35 35 36 38 38 39 42 45 47 46 48 49 48 50 50 48 48 50 51 50 50 49 47 46 46 47 46 44 43 40 39 40 38 37
44 43 43 44 45 45 44 44 43 41 43 46 43 42 42 40 36 33 33 38 42 41 40 43 46 47 45 43 43 44 45 44 42 40 39 40 40 40 37 32 32 33 34 34 34 31 32 34 36 36 36 36 35 34 35 33 32 34 36 35 35 37 37 37 37 38 38 38 39 43 47 47 46 48 49 48 49 48 47 47 50 51 50 50 49 47 46 46 46 45 44 43 40 39 39 38 37
39 38 40 42 43 44 44 44 45 42 41 42 43 42 42 41 38 38 36 37 42 41 41 45 47 47 45 43 42 41 43 43 41 39 39 39 39 40 37 34 32 32 33 33 33 32 31 33 35 36 35 34 34 33 35 35 33 36 38 37 37 38 38 39 40 42 41 40 40 41 45 46 46 48 49 48 48 48 48 47 47 48 48 48 49 47 46 45 45 44 43 42 40 39 37 36 38
37 35 36 37 38 42 44 46 46 43 40 40 41 43 43 41 41 43 41 38 42 43 43 45 45 45 41 40 41 41 42 41 40 39 39 39 38 38 37 35 32 31 32 33 32 31 31 32 34 36 34 32 32 32 34 35 34 35 37 38 38 38 40 42 42 43 43 41 41 39 40 43 44 46 45 46 46 46 47 47 46 46 45 44 45 46 45 45 44 44 43 41 40 39 36 36 39
36 34 32 32 34 38 40 43 46 43 41 40 41 42 41 42 42 42 41 39 41 44 44 45 45 42 36 36 39 40 41 40 39 38 37 37 36 36 36 34 32 31 31 32 32 32 32 32 34 35 33 30 30 31 33 34 32 33 34 36 37 38 40 42 41 42 43 42 42 38 36 38 40 42 42 42 42 43 44 45 44 43 42 42 43 44 45 44 44 43 42 41 41 39 37 37 37
33 31 29 29 30 33 34 38 44 43 40 40 42 43 40 41 43 41 40 39 41 43 42 43 44 39 32 34 38 39 40 40 39 36 34 35 35 35 36 34 32 31 31 32 33 32 32 32 34 35 34 31 29 29 31 32 31 30 33 34 34 35 38 39 39 39 41 42 42 39 35 36 37 39 41 40 39 40 40 40 40 38 38 40 42 43 45 45 43 43 43 41 41 40 38 36 33
32 30 28 27 27 30 30 33 40 39 38 39 40 44 41 40 43 40 40 41 42 42 40 40 42 38 32 32 34 38 39 37 38 36 34 34 34 35 35 35 33 32 32 33 33 32 32 32 33 34 34 30 29 28 29 31 30 28 31 33 32 33 35 35 36 36 38 41 41 39 37 35 36 38 40 39 39 39 38 36 34 33 34 37 39 42 44 45 45 43 42 41 41 40 39 34 27
31 29 26 25 26 28 29 31 35 34 37 38 39 44 43 42 44 41 41 44 44 42 39 39 41 39 36 33 32 36 35 32 35 37 35 33 33 34 35 36 35 33 33 33 32 32 30 30 31 33 32 30 29 28 28 29 29 28 29 33 33 33 34 34 35 34 36 38 38 37 36 38 39 39 40 39 39 39 37 34 32 31 32 33 37 40 42 45 45 43 41 41 41 41 39 32 24
28 27 26 26 25 26 28 29 29 32 37 38 39 44 44 44 45 42 41 44 45 44 41 39 41 40 37 35 32 32 31 29 32 34 34 34 32 33 34 36 35 34 33 32 31 31 29 29 29 30 30 28 28 28 28 28 29 29 29 32 34 34 34 34 34 34 35 36 36 38 38 41 43 43 42 41 39 38 37 36 35 34 34 34 36 38 41 43 43 41 41 40 41 40 37 29 23
26 25 26 26 24 26 28 27 26 30 36 39 39 43 44 44 44 42 40 42 46 48 45 41 40 39 37 36 33 31 29 28 29 31 32 33 31 31 32 34 34 33 33 31 30 30 29 28 27 28 28 28 29 28 27 27 28 29 30 32 33 34 34 34 34 35 36 36 37 40 41 42 44 44 43 41 37 36 38 38 38 38 36 35 35 36 38 39 41 41 41 40 39 37 31 24 22
24 23 25 25 23 25 27 27 27 30 35 38 39 40 41 42 43 42 39 39 43 47 48 43 39 39 38 35 33 31 27 25 26 28 30 31 30 30 31 32 31 31 32 31 30 30 30 29 27 26 27 28 28 27 26 27 27 29 31 32 33 34 35 34 35 35 36 35 36 39 42 43 44 43 43 41 38 37 38 38 39 39 37 35 33 34 36 39 41 40 38 36 32 29 25 21 22
24 23 25 25 22 24 26 27 29 31 32 35 39 40 40 42 43 43 40 37 38 41 45 44 39 39 39 36 32 30 27 23 23 25 27 29 28 28 29 30 30 30 30 29 29 30 31 31 29 27 27 26 26 26 26 27 28 29 31 33 34 34 35 35 35 35 35 35 35 37 40 43 44 44 45 43 40 38 39 39 39 38 36 34 32 32 34 37 36 34 31 28 27 26 24 22 21
24 24 26 26 23 24 26 27 29 30 32 34 36 38 39 41 41 42 42 38 37 38 41 43 39 37 39 38 34 31 27 23 23 23 24 26 26 27 27 28 28 29 29 28 28 29 29 31 30 28 26 25 25 25 27 27 28 29 31 32 32 31 32 34 35 35 35 35 36 37 40 43 44 45 45 44 43 41 41 41 40 38 37 33 29 30 31 30 29 28 27 27 26 24 21 19 18
23 23 24 25 25 26 25 26 28 29 32 34 34 36 38 39 39 41 42 40 39 38 39 42 40 36 39 40 36 32 28 24 22 23 23 23 24 25 25 26 27 27 28 28 27 27 27 29 29 28 27 25 24 25 25 25 26 28 29 29 28 27 29 31 34 35 34 35 37 38 40 42 43 43 44 45 44 42 41 40 38 37 34 29 26 26 25 26 28 27 25 24 21 18 17 18 20
20 21 22 23 25 25 24 26 28 29 33 35 34 36 37 37 38 40 41 41 39 38 38 40 40 38 38 40 38 35 31 28 25 23 22 22 22 23 23 24 25 25 27 27 26 25 26 27 28 29 27 26 25 24 24 23 24 24 25 27 26 25 27 29 31 33 33 34 35 37 38 40 42 43 43 43 43 42 40 36 32 30 28 25 24 24 24 27 27 24 23 20 17 18 22 24 24
17 19 20 21 23 24 24 26 27 29 33 35 35 36 36 36 38 38 39 39 37 38 37 37 41 40 37 38 38 36 34 32 29 25 22 21 21 21 21 21 22 23 24 25 25 25 25 26 27 29 29 27 26 26 24 22 22 23 24 25 25 24 26 27 29 31 32 33 34 36 37 39 41 41 42 42 42 42 38 31 27 26 26 26 24 23 25 26 23 22 22 20 20 25 27 26 26
14 17 18 20 24 26 25 25 27 28 30 32 33 35 36 37 39 39 38 37 37 38 37 36 40 41 38 36 36 36 34 32 30 27 23 21 20 20 20 20 21 22 22 23 24 24 24 24 25 26 28 27 26 26 25 24 23 23 25 25 25 25 25 26 28 30 31 32 33 36 38 39 39 40 40 42 42 39 33 27 24 25 27 26 25 26 26 25 23 22 21 21 25 28 29 28 27
13 14 15 19 25 27 26 28 28 28 29 31 35 37 38 40 41 41 39 38 38 38 38 37 38 41 40 37 35 34 34 33 32 28 24 22 21 20 20 20 21 21 21 21 21 22 22 23 23 24 25 26 26 25 26 26 25 25 25 26 26 25 25 25 25 26 29 32 34 36 38 39 40 39 40 41 40 35 28 25 24 26 28 27 28 30 29 29 27 23 22 26 29 32 33 31 29
12 12 12 17 25 27 27 29 28 28 30 33 37 41 43 43 42 41 41 40 39 39 39 37 37 39 39 37 35 33 34 35 34 32 29 26 24 21 20 20 20 20 19 19 19 20 21 21 21 21 23 24 25 25 26 26 27 27 25 24 24 24 23 22 22 24 28 32 34 37 39 39 39 38 38 37 34 29 26 25 27 28 28 29 31 34 35 33 30 29 31 31 31 34 35 35 33
10 10 10 14 22 26 27 28 28 31 32 32 35 39 44 45 43 42 41 40 40 41 41 38 37 37 37 37 35 33 34 35 34 34 33 31 27 24 21 20 20 19 19 18 19 20 20 21 21 21 22 23 24 25 25 26 27 27 26 23 21 21 21 21 22 24 28 31 33 35 37 37 37 38 38 33 28 26 27 29 30 30 31 33 35 37 37 34 33 38 40 38 36 37 39 38 37
9 8 9 12 17 21 25 27 29 31 31 31 33 36 40 41 40 41 41 40 41 42 41 39 38 37 36 36 36 34 34 34 33 33 33 32 30 27 25 23 22 21 20 20 19 19 20 20 21 21 22 22 23 24 25 26 26 26 25 23 20 19 18 20 23 25 28 32 33 34 36 36 37 39 37 31 26 26 28 32 33 33 35 37 38 39 38 35 38 44 45 44 43 43 45 43 41
7 7 8 10 13 17 22 27 28 28 30 31 32 35 39 41 39 39 41 42 41 40 39 38 38 37 35 35 36 35 34 33 33 33 32 31 31 30 28 26 25 23 23 22 20 19 19 20 20 21 22 22 22 23 24 25 26 25 24 22 20 19 18 20 23 25 27 30 33 35 36 36 38 40 37 31 27 28 31 34 35 36 38 40 39 40 39 40 44 47 47 48 48 48 49 47 45
6 6 7 8 11 14 18 24 26 27 30 31 30 32 38 41 40 41 43 41 38 36 36 37 37 38 36 34 34 36 36 34 33 33 32 31 30 29 29 29 28 25 23 23 22 22 21 22 22 22 22 22 22 22 23 25 26 26 24 21 19 19 19 19 22 24 26 28 31 34 35 36 39 39 34 30 29 33 35 36 36 38 40 42 42 40 40 44 47 48 50 52 52 51 51 49 48
7 7 7 7 10 13 17 20 23 27 30 30 29 29 32 35 37 38 38 35 33 34 35 35 36 38 37 34 34 35 37 36 34 32 32 32 31 31 31 31 30 28 25 24 23 24 23 23 24 24 23 23 23 23 23 24 26 26 23 20 18 18 19 19 20 23 25 27 30 32 33 35 38 36 32 30 33 36 38 37 38 40 42 44 44 43 44 45 46 47 51 55 54 52 51 49 47
9 8 8 8 9 12 15 17 20 26 27 27 28 27 29 31 29 30 30 29 30 31 32 33 35 37 37 35 33 34 35 36 36 34 33 33 34 35 34 33 33 32 30 27 25 24 24 24 24 25 25 25 24 24 23 24 26 26 23 20 18 17 18 18 18 20 22 26 29 31 32 34 35 33 32 34 36 38 38 38 39 41 43 44 43 46 48 45 44 46 49 51 49 47 48 46 44
10 9 9 9 9 11 14 14 18 21 21 24 26 27 29 29 25 25 27 27 28 28 28 30 32 34 34 35 35 34 34 35 36 36 36 35 35 35 35 34 34 34 34 33 32 30 27 26 25 26 27 27 27 26 25 25 26 26 24 21 18 17 17 17 16 18 21 25 28 30 31 32 33 33 34 36 38 38 37 37 39 40 40 41 43 46 46 42 42 45 47 48 45 42 42 41 43
10 9 9 10 10 12 14 14 16 17 17 19 23 26 29 28 24 23 23 25 26 25 25 27 29 31 32 33 35 35 34 34 36 37 38 37 35 35 36 35 35 34 35 37 38 36 32 29 28 28 28 29 29 29 27 26 26 26 25 22 18 17 18 17 17 19 23 26 27 28 29 30 32 34 35 36 37 36 35 37 39 38 37 40 43 44 43 40 40 43 45 45 45 43 40 39 44
9 10 9 9 9 10 12 14 15 17 17 17 21 26 27 26 24 22 22 24 25 24 24 25 26 28 30 32 34 34 33 34 36 37 37 38 38 36 35 35 35 35 37 38 39 39 36 32 30 29 28 29 29 29 29 28 27 27 26 23 20 19 18 17 18 19 23 27 29 29 29 30 32 34 35 34 35 35 36 37 38 38 38 40 42 44 43 40 40 42 42 41 42 44 41 39 43
10 9 9 10 9 9 11 15 15 14 15 16 18 23 24 22 21 21 21 24 25 24 24 25 25 26 29 31 32 33 33 32 34 36 37 38 38 37 36 34 33 36 38 39 38 38 37 35 34 32 31 29 28 28 29 29 29 29 28 25 21 20 20 19 19 20 24 28 30 31 32 31 31 33 35 35 36 37 37 38 40 40 39 39 41 43 42 39 39 40 39 39 40 41 39 37 40
11 10 9 9 9 8 9 12 12 11 14 16 15 17 19 18 17 18 21 24 25 25 26 27 28 28 28 30 31 32 34 33 34 35 36 37 37 38 36 33 33 35 37 37 35 34 34 34 34 34 34 33 30 28 29 29 29 30 30 28 24 23 22 21 21 22 25 29 31 34 34 32 33 35 36 36 38 39 39 39 40 39 37 36 37 39 38 37 38 38 36 36 38 37 36 35 36
12 10 9 9 9 8 9 11 10 10 13 15 13 12 15 16 17 18 21 23 23 24 26 27 27 30 29 28 31 32 32 33 34 35 35 35 37 39 37 34 33 34 34 33 32 32 32 32 31 32 32 33 32 30 29 29 29 29 30 30 27 25 25 24 24 25 27 30 33 35 35 35 36 37 37 39 41 41 40 40 40 38 36 36 35 36 36 36 36 36 34 34 37 37 35 35 36
12 11 10 10 10 9 10 11 11 11 12 13 12 13 14 15 17 18 18 21 21 21 24 25 26 29 28 26 29 31 31 33 35 36 36 36 36 37 37 35 34 33 32 32 32 32 32 31 31 30 29 30 31 32 31 30 29 28 28 29 29 27 27 27 27 28 30 33 35 36 35 36 37 39 40 42 44 43 41 40 40 39 37 35 34 34 34 34 33 33 32 33 36 38 37 37 38
13 12 10 10 10 9 9 9 10 13 15 15 13 13 15 15 16 16 15 18 19 19 22 23 24 26 26 25 28 30 31 32 34 36 37 37 36 35 35 36 35 34 33 33 33 33 32 31 31 31 30 29 30 31 31 31 30 29 29 29 28 28 27 28 29 29 30 32 35 36 34 34 36 39 42 43 44 43 40 39 39 39 36 34 34 34 32 32 32 31 32 33 34 36 36 36 36
13 13 12 11 9 9 9 8 9 12 19 22 17 14 16 16 15 14 13 16 18 20 20 23 24 24 25 27 28 29 29 30 33 35 36 36 35 33 34 35 35 34 34 34 33 31 30 31 31 31 31 31 30 30 30 30 30 30 30 29 28 27 27 27 27 28 28 30 34 35 33 33 35 39 41 43 43 42 39 37 37 37 35 33 34 34 31 31 31 32 33 34 34 34 35 34 34
13 13 12 11 10 10 9 9 10 9 13 19 18 15 15 14 12 12 12 15 18 20 21 24 27 25 27 29 29 30 30 30 31 33 35 35 35 33 33 34 34 34 34 33 31 30 31 31 30 30 31 31 31 30 30 30 29 28 29 28 27 27 27 27 26 26 28 32 34 35 32 31 34 38 40 42 43 41 38 36 36 37 35 33 33 34 33 32 32 33 33 34 34 34 34 34 33